Location: Laguna de la Cañada del Gallo
(40.3974°N, 5.2096°W)
Time: 06:16:13
(UTC+00:00)

Cosmos 1932 - Visible Passes

Search period start: 13 July 2024 00:00
Search period end: 23 July 2024 00:00
Orbit: 942 x 987 km, 65.0° (Epoch: 12 July)

Date Brightness Start Highest point End Pass type
(mag) Time Alt. Az. Time Alt. Az. Time Alt. Az.
13 Jul 4.3 00:56:26 10° NW 01:02:37 72° WSW 01:02:47 71° SW visible
13 Jul 7.0 21:46:45 10° NNE 21:47:48 10° NNE 21:48:51 10° NE visible
13 Jul 5.4 23:31:26 10° NNW 23:37:13 39° NE 23:39:29 29° E visible
14 Jul 5.2 01:19:02 10° NW 01:23:52 37° W 01:23:52 37° W visible
14 Jul 6.7 22:07:19 10° N 22:10:58 16° NE 22:14:36 10° ENE visible
14 Jul 4.5 23:53:30 10° NNW 23:59:42 67° ENE 00:00:39 58° ESE visible
15 Jul 6.1 01:42:15 10° WNW 01:45:01 18° W 01:45:01 18° W visible
15 Jul 6.1 22:28:54 10° NNW 22:33:53 24° NE 22:37:30 15° E visible
16 Jul 4.4 00:15:47 10° NW 00:21:52 70° WSW 00:21:52 70° WSW visible
16 Jul 6.9 21:05:55 10° NNE 21:07:11 11° NNE 21:08:27 10° NE visible
16 Jul 5.3 22:50:46 10° NNW 22:56:34 40° NE 22:58:46 30° E visible
17 Jul 5.3 00:38:24 10° NW 00:43:09 36° W 00:43:09 36° W visible
17 Jul 6.6 21:26:37 10° N 21:30:21 16° NE 21:34:03 10° ENE visible
17 Jul 4.5 23:12:50 10° NNW 23:19:03 69° NE 23:20:06 58° ESE visible
18 Jul 6.2 01:01:40 10° WNW 01:04:29 18° W 01:04:29 18° W visible
18 Jul 6.0 21:48:14 10° NNW 21:53:16 25° NE 21:57:05 14° E visible
18 Jul 4.4 23:35:09 10° NW 23:41:18 68° WSW 23:41:28 68° SW visible
19 Jul 6.8 20:25:08 10° NNE 20:26:35 11° NNE 20:28:02 10° NE visible
19 Jul 5.2 22:10:06 10° NNW 22:15:57 40° NE 22:18:30 28° E visible
19 Jul 5.3 23:57:47 10° NW 00:02:54 36° WSW 00:02:54 36° WSW visible
20 Jul 6.5 20:45:56 10° N 20:49:44 16° NE 20:53:30 10° ENE visible
20 Jul 4.5 22:32:11 10° NNW 22:38:23 70° NE 22:39:58 50° ESE visible
21 Jul 6.2 00:21:05 10° WNW 00:24:22 19° W 00:24:22 19° W visible
21 Jul 5.9 21:07:34 10° NNW 21:12:38 25° NE 21:17:05 12° E visible
21 Jul 4.4 22:54:30 10° NW 23:00:39 66° WSW 23:01:29 60° SSW visible
22 Jul 5.2 21:29:26 10° NNW 21:35:18 41° NE 21:38:39 23° ESE visible
22 Jul 5.3 23:17:10 10° NW 23:22:43 35° WSW 23:23:02 35° WSW visible
